| time (UTC) | temp C | wind direction | speed KPH | gust KPH | rain 1hr cm | rain 24hr cm | rain mn cm | humidity % | barometer mb |
| 20260508013037 | 17 | 268 | 6.4 | 12.9 | 0.00 | 0.00 | 0.00 | 90 | 1014.9 |
| 20260508012025 | 17 | 275 | 8.0 | 12.9 | 0.00 | 0.00 | 0.00 | 89 | 1014.8 |
| 20260508011031 | 18 | 272 | 11.3 | 16.1 | 0.00 | 0.00 | 0.00 | 88 | 1014.9 |
| 20260508010036 | 18 | 264 | 9.7 | 16.1 | 0.00 | 0.00 | 0.00 | 88 | 1014.9 |
| 20260508005023 | 18 | 272 | 9.7 | 14.5 | 0.00 | 0.00 | 0.00 | 89 | 1014.9 |
| 20260508004040 | 18 | 267 | 11.3 | 14.5 | 0.00 | 0.00 | 0.00 | 89 | 1014.8 |
| 20260508003027 | 17 | 276 | 9.7 | 14.5 | 0.00 | 0.00 | 0.00 | 90 | 1014.8 |
| 20260508002040 | 17 | 293 | 9.7 | 16.1 | 0.00 | 0.00 | 0.00 | 90 | 1014.7 |
| 20260508001028 | 18 | 278 | 11.3 | 16.1 | 0.00 | 0.00 | 0.00 | 89 | 1014.7 |
| 20260508000037 | 18 | 285 | 12.9 | 17.7 | 0.00 | 0.00 | 0.00 | 89 | 1014.8 |
| 20260507235024 | 18 | 288 | 12.9 | 17.7 | 0.00 | 0.00 | 0.00 | 88 | 1014.8 |
| 20260507234026 | 18 | 287 | 11.3 | 17.7 | 0.00 | 0.00 | 0.00 | 88 | 1014.8 |
| 20260507233035 | 18 | 276 | 12.9 | 19.3 | 0.00 | 0.00 | 0.00 | 88 | 1014.6 |
| 20260507232024 | 18 | 303 | 9.7 | 17.7 | 0.00 | 0.00 | 0.00 | 87 | 1014.6 |
| 20260507231032 | 19 | 289 | 11.3 | 16.1 | 0.00 | 0.00 | 0.00 | 86 | 1014.8 |
| 20260507230024 | 19 | 285 | 9.7 | 14.5 | 0.00 | 0.00 | 0.00 | 85 | 1014.7 |
| 20260507225030 | 18 | 265 | 9.7 | 14.5 | 0.00 | 0.00 | 0.00 | 86 | 1014.9 |
| 20260507223037 | 18 | 227 | 9.7 | 17.7 | 0.00 | 0.00 | 0.00 | 89 | 1014.9 |
| 20260507221020 | 17 | 210 | 12.9 | 17.7 | 0.00 | 0.00 | 0.00 | 88 | 1015.0 |
| 20260507215027 | 18 | 222 | 14.5 | 17.7 | 0.00 | 0.00 | 0.00 | 88 | 1015.4 |
| 20260507214027 | 17 | 211 | 12.9 | 19.3 | 0.00 | 0.00 | 0.00 | 89 | 1015.6 |
| 20260507213035 | 18 | 221 | 14.5 | 19.3 | 0.00 | 0.00 | 0.00 | 87 | 1015.8 |
| 20260507212022 | 17 | 227 | 12.9 | 20.9 | 0.00 | 0.00 | 0.00 | 89 | 1015.9 |
| 20260507210024 | 17 | 255 | 16.1 | 22.5 | 0.00 | 0.00 | 0.00 | 89 | 1016.0 |
| 20260507205029 | 17 | 238 | 17.7 | 20.9 | 0.00 | 0.00 | 0.00 | 88 | 1016.2 |
| 20260507203036 | 17 | 228 | 16.1 | 20.9 | 0.00 | 0.00 | 0.00 | 89 | 1016.2 |
| 20260507202023 | 17 | 219 | 14.5 | 20.9 | 0.00 | 0.00 | 0.00 | 87 | 1016.1 |
| 20260507201034 | 17 | 227 | 11.3 | 19.3 | 0.00 | 0.00 | 0.00 | 87 | 1016.2 |
| 20260507200023 | 17 | 240 | 14.5 | 17.7 | 0.00 | 0.00 | 0.00 | 87 | 1016.3 |
| 20260507195031 | 17 | 204 | 12.9 | 17.7 | 0.00 | 0.00 | 0.00 | 87 | 1016.5 |
| 20260507194029 | 17 | 245 | 14.5 | 20.9 | 0.00 | 0.00 | 0.00 | 87 | 1016.5 |
| 20260507193021 | 17 | 228 | 12.9 | 20.9 | 0.00 | 0.00 | 0.00 | 88 | 1016.6 |
| 20260507192030 | 17 | 241 | 12.9 | 19.3 | 0.00 | 0.00 | 0.00 | 88 | 1016.7 |
| 20260507191038 | 17 | 198 | 14.5 | 20.9 | 0.00 | 0.00 | 0.00 | 88 | 1016.7 |
| 20260507190022 | 17 | 207 | 14.5 | 19.3 | 0.00 | 0.00 | 0.00 | 87 | 1016.8 |
| 20260507185028 | 17 | 230 | 14.5 | 19.3 | 0.00 | 0.00 | 0.00 | 87 | 1016.9 |
| 20260507181038 | 17 | 203 | 9.7 | 19.3 | 0.00 | 0.00 | 0.00 | 88 | 1017.0 |
| 20260507180026 | 17 | 227 | 11.3 | 14.5 | 0.00 | 0.00 | 0.00 | 88 | 1017.1 |
| 20260507175031 | 17 | 221 | 11.3 | 14.5 | 0.00 | 0.00 | 0.00 | 89 | 1017.1 |
| 20260507174031 | 17 | 238 | 11.3 | 16.1 | 0.00 | 0.00 | 0.00 | 89 | 1017.1 |
| 20260507173025 | 17 | 237 | 12.9 | 16.1 | 0.00 | 0.00 | 0.00 | 89 | 1017.2 |
| 20260507172034 | 17 | 227 | 9.7 | 17.7 | 0.00 | 0.00 | 0.00 | 89 | 1017.2 |
| 20260507171021 | 17 | 221 | 9.7 | 14.5 | 0.00 | 0.00 | 0.00 | 90 | 1017.2 |
| 20260507170029 | 16 | 243 | 11.3 | 14.5 | 0.00 | 0.00 | 0.00 | 90 | 1017.3 |
| 20260507165038 | 16 | 219 | 9.7 | 12.9 | 0.00 | 0.00 | 0.00 | 90 | 1017.3 |
| 20260507164035 | 16 | 222 | 8.0 | 12.9 | 0.00 | 0.00 | 0.00 | 90 | 1017.2 |
| 20260507163022 | 16 | 249 | 9.7 | 12.9 | 0.00 | 0.00 | 0.00 | 90 | 1017.2 |
| 20260507162028 | 16 | 231 | 8.0 | 12.9 | 0.00 | 0.00 | 0.00 | 90 | 1017.3 |
| 20260507160036 | 16 | 231 | 8.0 | 11.3 | 0.00 | 0.00 | 0.00 | 92 | 1017.3 |
| 20260507155020 | 16 | 225 | 8.0 | 12.9 | 0.00 | 0.00 | 0.00 | 92 | 1017.4 |
| 20260507154037 | 16 | 193 | 3.2 | 9.7 | 0.00 | 0.00 | 0.00 | 93 | 1017.3 |
| 20260507153028 | 16 | 310 | 6.4 | 9.7 | 0.00 | 0.00 | 0.00 | 93 | 1017.4 |
| 20260507152036 | 16 | 310 | 3.2 | 9.7 | 0.00 | 0.00 | 0.00 | 93 | 1017.4 |
| 20260507151022 | 16 | 310 | 4.8 | 6.4 | 0.00 | 0.00 | 0.00 | 94 | 1017.4 |
| 20260507150029 | 15 | 310 | 0.0 | 0.0 | 0.00 | 0.00 | 0.00 | 94 | 1017.4 |
| 20260507145039 | 15 | 310 | 0.0 | 4.8 | 0.00 | 0.00 | 0.00 | 94 | 1017.4 |
| 20260507144034 | 15 | 310 | 3.2 | 6.4 | 0.00 | 0.00 | 0.00 | 94 | 1017.2 |
| 20260507143022 | 15 | 310 | 4.8 | 8.0 | 0.00 | 0.00 | 0.00 | 95 | 1017.3 |
| 20260507142029 | 15 | 310 | 0.0 | 0.0 | 0.00 | 0.00 | 0.00 | 95 | 1017.1 |
| 20260507140034 | 15 | 310 | 0.0 | 0.0 | 0.00 | 0.00 | 0.00 | 95 | 1016.9 |
| 20260507134039 | 14 | 310 | 0.0 | 0.0 | 0.00 | 0.00 | 0.00 | 95 | 1016.6 |
| 20260507133027 | 14 | 310 | 0.0 | 0.0 | 0.00 | 0.00 | 0.00 | 95 | 1016.6 |
| 20260507131025 | 13 | 310 | 0.0 | 0.0 | 0.00 | 0.00 | 0.00 | 94 | 1016.5 |
| 20260507130022 | 13 | 310 | 0.0 | 0.0 | 0.00 | 0.00 | 0.00 | 94 | 1016.2 |
| 20260507125028 | 13 | 310 | 0.0 | 0.0 | 0.00 | 0.00 | 0.00 | 94 | 1016.2 |
| 20260507124025 | 13 | 311 | 0.0 | 0.0 | 0.00 | 0.00 | 0.00 | 94 | 1016.3 |
| 20260507123036 | 13 | 310 | 0.0 | 0.0 | 0.00 | 0.00 | 0.00 | 94 | 1016.2 |
| 20260507122022 | 13 | 310 | 0.0 | 0.0 | 0.00 | 0.00 | 0.00 | 94 | 1016.2 |
| 20260507121030 | 13 | 310 | 0.0 | 0.0 | 0.00 | 0.00 | 0.00 | 94 | 1016.3 |
| 20260507120037 | 13 | 310 | 0.0 | 0.0 | 0.00 | 0.00 | 0.00 | 94 | 1016.4 |
| 20260507115027 | 13 | 310 | 0.0 | 0.0 | 0.00 | 0.00 | 0.00 | 94 | 1016.4 |
| 20260507114023 | 14 | 310 | 0.0 | 0.0 | 0.00 | 0.00 | 0.00 | 95 | 1016.4 |
| 20260507113030 | 14 | 310 | 0.0 | 0.0 | 0.00 | 0.00 | 0.00 | 95 | 1016.5 |
| 20260507112036 | 14 | 310 | 0.0 | 0.0 | 0.00 | 0.00 | 0.00 | 95 | 1016.5 |
| 20260507111028 | 14 | 310 | 0.0 | 0.0 | 0.00 | 0.00 | 0.00 | 95 | 1016.6 |
| 20260507110034 | 14 | 310 | 0.0 | 0.0 | 0.00 | 0.00 | 0.00 | 95 | 1016.5 |
| 20260507105020 | 14 | 310 | 0.0 | 0.0 | 0.00 | 0.00 | 0.00 | 95 | 1016.7 |
| 20260507104036 | 14 | 310 | 0.0 | 0.0 | 0.00 | 0.00 | 0.00 | 95 | 1016.7 |
| 20260507103028 | 14 | 310 | 0.0 | 0.0 | 0.00 | 0.00 | 0.00 | 95 | 1016.7 |
| 20260507102036 | 14 | 310 | 0.0 | 0.0 | 0.00 | 0.00 | 0.00 | 95 | 1016.7 |
| 20260507101022 | 14 | 310 | 0.0 | 0.0 | 0.00 | 0.00 | 0.00 | 95 | 1016.7 |
| 20260507100020 | 14 | 310 | 0.0 | 0.0 | 0.00 | 0.00 | 0.00 | 95 | 1016.7 |
| 20260507095029 | 15 | 310 | 0.0 | 0.0 | 0.00 | 0.00 | 0.00 | 94 | 1016.6 |
| 20260507094027 | 15 | 310 | 0.0 | 0.0 | 0.00 | 0.00 | 0.00 | 95 | 1016.8 |
| 20260507093033 | 15 | 310 | 0.0 | 0.0 | 0.00 | 0.00 | 0.00 | 95 | 1016.9 |
| 20260507092021 | 15 | 310 | 0.0 | 0.0 | 0.00 | 0.00 | 0.00 | 94 | 1017.1 |
| 20260507091032 | 15 | 310 | 0.0 | 0.0 | 0.00 | 0.00 | 0.00 | 94 | 1017.1 |
| 20260507090039 | 15 | 310 | 0.0 | 0.0 | 0.00 | 0.00 | 0.00 | 94 | 1017.1 |
| 20260507085024 | 15 | 310 | 0.0 | 0.0 | 0.00 | 0.00 | 0.00 | 94 | 1017.3 |
| 20260507084022 | 15 | 310 | 0.0 | 0.0 | 0.00 | 0.00 | 0.00 | 94 | 1017.6 |
| 20260507083033 | 15 | 310 | 0.0 | 0.0 | 0.00 | 0.00 | 0.00 | 94 | 1017.6 |
| 20260507082021 | 15 | 310 | 0.0 | 0.0 | 0.00 | 0.00 | 0.00 | 94 | 1017.5 |
| 20260507081028 | 15 | 310 | 0.0 | 0.0 | 0.00 | 0.00 | 0.00 | 94 | 1017.7 |
| 20260507080035 | 15 | 310 | 0.0 | 0.0 | 0.00 | 0.00 | 0.00 | 94 | 1017.7 |
| 20260507075026 | 15 | 310 | 0.0 | 0.0 | 0.00 | 0.00 | 0.00 | 94 | 1017.7 |
| 20260507072024 | 16 | 310 | 4.8 | 8.0 | 0.00 | 0.00 | 0.00 | 93 | 1017.6 |
| 20260507071035 | 16 | 310 | 1.6 | 6.4 | 0.00 | 0.00 | 0.00 | 93 | 1017.6 |
| 20260507070034 | 16 | 310 | 1.6 | 8.0 | 0.00 | 0.00 | 0.00 | 93 | 1017.8 |
| 20260507063030 | 16 | 324 | 8.0 | 12.9 | 0.00 | 0.00 | 0.00 | 93 | 1018.1 |
| 20260507062021 | 16 | 328 | 1.6 | 9.7 | 0.00 | 0.00 | 0.00 | 92 | 1018.0 |
| 20260507061028 | 16 | 328 | 0.0 | 9.7 | 0.00 | 0.00 | 0.00 | 92 | 1018.0 |
| 20260507060035 | 16 | 328 | 4.8 | 9.7 | 0.00 | 0.00 | 0.00 | 92 | 1017.9 |
| 20260507054042 | 16 | 328 | 6.4 | 16.1 | 0.00 | 0.00 | 0.00 | 92 | 1018.0 |
| 20260507053020 | 16 | 4 | 6.4 | 14.5 | 0.00 | 0.00 | 0.00 | 92 | 1017.7 |
| 20260507052042 | 16 | 336 | 8.0 | 14.5 | 0.00 | 0.00 | 0.00 | 91 | 1017.7 |
| 20260507051047 | 16 | 339 | 8.0 | 12.9 | 0.00 | 0.00 | 0.00 | 91 | 1017.7 |
| 20260507050037 | 16 | 332 | 8.0 | 9.7 | 0.00 | 0.00 | 0.00 | 91 | 1017.7 |
| 20260507045046 | 16 | 332 | 6.4 | 11.3 | 0.00 | 0.00 | 0.00 | 91 | 1017.6 |
| 20260507044046 | 16 | 331 | 6.4 | 11.3 | 0.00 | 0.00 | 0.00 | 90 | 1017.6 |
| 20260507043024 | 16 | 331 | 6.4 | 12.9 | 0.00 | 0.00 | 0.00 | 90 | 1017.5 |
| 20260507042040 | 16 | 332 | 6.4 | 11.3 | 0.00 | 0.00 | 0.00 | 89 | 1017.4 |
| 20260507041033 | 16 | 333 | 8.0 | 12.9 | 0.00 | 0.00 | 0.00 | 89 | 1017.4 |
| 20260507040024 | 16 | 307 | 8.0 | 14.5 | 0.00 | 0.00 | 0.00 | 89 | 1017.4 |
| 20260507035046 | 16 | 330 | 6.4 | 9.7 | 0.00 | 0.00 | 0.00 | 89 | 1017.3 |
| 20260507034042 | 16 | 312 | 6.4 | 12.9 | 0.00 | 0.00 | 0.00 | 89 | 1017.2 |
| 20260507033024 | 16 | 326 | 4.8 | 12.9 | 0.00 | 0.00 | 0.00 | 89 | 1017.2 |
| 20260507032046 | 16 | 316 | 4.8 | 16.1 | 0.00 | 0.00 | 0.00 | 89 | 1017.1 |
| 20260507031038 | 16 | 340 | 8.0 | 17.7 | 0.00 | 0.00 | 0.00 | 89 | 1017.0 |
| 20260507030049 | 16 | 330 | 4.8 | 14.5 | 0.00 | 0.00 | 0.00 | 89 | 1016.9 |
| 20260507024040 | 16 | 295 | 12.9 | 17.7 | 0.00 | 0.00 | 0.00 | 88 | 1016.8 |
| 20260507023019 | 17 | 317 | 11.3 | 19.3 | 0.00 | 0.00 | 0.00 | 87 | 1016.8 |
| 20260507022041 | 17 | 313 | 9.7 | 16.1 | 0.00 | 0.00 | 0.00 | 86 | 1016.6 |
| 20260507020037 | 17 | 287 | 14.5 | 17.7 | 0.00 | 0.00 | 0.00 | 89 | 1016.6 |
| 20260507015047 | 17 | 4 | 11.3 | 20.9 | 0.00 | 0.00 | 0.00 | 88 | 1016.6 |
| 20260507014046 | 17 | 306 | 14.5 | 20.9 | 0.00 | 0.00 | 0.00 | 87 | 1016.5 |